Regional Weather Roundup
Issued by NWS

Home | Current Version | Previous Version | Text Only | Print | Product List | Glossary On
Versions: 1 2 3 4 5 6 7 8 9 10 11 12 13 14 15 16 17 18 19 20 21 22 23 24 25 26 27 28 29 30 31 32 33 34 35 36 37 38 39 40 41 42 43 44 45 46 47 48 49 50
000
ASUS43 KMKX 280021
RWRWI

WISCONSIN REGIONAL WEATHER ROUNDUP
NATIONAL WEATHER SERVICE MILWAUKEE/SULLIVAN WI
700 PM CDT TUE SEP 27 2016

NOTE: "FAIR" INDICATES FEW OR NO CLOUDS BELOW 12,000 FEET WITH NO
SIGNIFICANT WEATHER AND/OR OBSTRUCTIONS TO VISIBILITY.

WIZ001-002-006>008-014>016-023>028-280100-
NORTHWEST WISCONSIN

CITY           SKY/WX    TMP DP  RH WIND       PRES   REMARKS
SUPERIOR ARPT  CLOUDY    49  46  86 CALM      29.80R
6HR MIN TEMP:  49; 6HR MAX TEMP:  51; 6HR PCP:  0.13;

ASHLAND        CLOUDY    50  46  86 NW5       29.76R
6HR MIN TEMP:  50; 6HR MAX TEMP:  52; 6HR PCP:  0.01;

HAYWARD        CLOUDY    48  45  89 CALM      29.78R
6HR MIN TEMP:  47; 6HR MAX TEMP:  50; 6HR PCP:  0.10;

SIREN          CLOUDY    47  45  91 NW8       29.81S
6HR MIN TEMP:  47; 6HR MAX TEMP:  50; 6HR PCP:  0.25;

CUMBERLAND     MOCLDY    45  43  93 NW8       29.80R
RICE LAKE      DRIZZLE   47  44  90 NW5       29.81R
6HR MIN TEMP:  47; 6HR MAX TEMP:  51; 6HR PCP:  0.18;

CHETEK         NOT AVBL
LADYSMITH      CLOUDY    48  46  93 NW10      29.78R
6HR MIN TEMP:  48; 6HR MAX TEMP:  52; 6HR PCP:  0.09;

EAU CLAIRE     LGT RAIN  48  46  93 NW7       29.79R
6HR MIN TEMP:  48; 6HR MAX TEMP:  54; 6HR PCP:  0.21;

MENOMONIE      DRIZZLE   48  48 100 NW7       29.80S
6HR MIN TEMP:  48; 6HR MAX TEMP:  55; 6HR PCP:  0.17;

NEW RICHMOND   LGT RAIN  47  47  97 NW6       29.82R
6HR MIN TEMP:  47; 6HR MAX TEMP:  54; 6HR PCP:  0.13;

OSCEOLA        LGT RAIN  49  49 100 NW6       29.85R
6HR MIN TEMP:  49; 6HR MAX TEMP:  54; 6HR PCP:  0.10;

$$

WIZ003>005-009-010-017-018-280100-
NORTH CENTRAL WISCONSIN

CITY           SKY/WX    TMP DP  RH WIND       PRES   REMARKS
MANITOWISH WTR NOT AVBL
ARBOR VITAE    CLOUDY    49  48  95 NW7       29.72R FOG
6HR MIN TEMP:  49; 6HR MAX TEMP:  52;

WOODRUFF       CLOUDY    49  48  95 NW7       29.72R FOG
6HR MIN TEMP:  49; 6HR MAX TEMP:  52;

RHINELANDER    CLOUDY    48  48 100 VRB3      29.72R FOG
6HR MIN TEMP:  48; 6HR MAX TEMP:  50; 6HR PCP:  0.05;

EAGLE RIVER    CLOUDY    47  47  97 NW7       29.70R
6HR MIN TEMP:  47; 6HR MAX TEMP:  50;

LAND O LAKES   DRIZZLE   47  46  96 NW8       29.71R
6HR MIN TEMP:  47; 6HR MAX TEMP:  51;

PHILLIPS       CLOUDY    46  46  99 CALM      29.74R
6HR MIN TEMP:  46; 6HR MAX TEMP:  49; 6HR PCP:  0.06;

TOMAHAWK       RAIN      46  45  93 W3        29.73R
6HR MIN TEMP:  46; 6HR MAX TEMP:  50;

MEDFORD        CLOUDY    46  46 100 W8        29.74S
6HR MIN TEMP:  46; 6HR MAX TEMP:  50; 6HR PCP:  0.14;

MERRILL        CLOUDY    48  47  97 NW7       29.73R
6HR MIN TEMP:  48; 6HR MAX TEMP:  50;

$$

WIZ029-030-035-036-043>047-280100-
CENTRAL WISCONSIN

CITY           SKY/WX    TMP DP  RH WIND       PRES   REMARKS
WAUSAU         CLOUDY    49  47  93 W8        29.72R
6HR MIN TEMP:  49; 6HR MAX TEMP:  51; 6HR PCP:  0.14;

MOSINEE        CLOUDY    48  48 100 W7        29.74R
MARSHFIELD     LGT RAIN  49  45  86 NW9       29.75R
6HR MIN TEMP:  49; 6HR MAX TEMP:  53; 6HR PCP:  0.02;

STEVENS POINT  RAIN      47  47  99 W6        29.74S
6HR MIN TEMP:  47; 6HR MAX TEMP:  52; 6HR PCP:  0.11;

WAUPACA        RAIN      52  50  94 W8        29.74S
6HR MIN TEMP:  52; 6HR MAX TEMP:  59; 6HR PCP:  0.01;

WAUTOMA        LGT RAIN  50  48  93 W10       29.76R
6HR MIN TEMP:  50; 6HR MAX TEMP:  56;

WISC RAPIDS    LGT RAIN  49  48  97 NW7       29.76S
6HR MIN TEMP:  49; 6HR MAX TEMP:  55; 6HR PCP:  0.12;

CAMP DOUGLAS   CLOUDY    49  46  92 W12       29.78R
6HR MIN TEMP:  49; 6HR MAX TEMP:  55; 6HR PCP:  0.07;

$$

WIZ011>013-019>022-031-037>040-048>050-280100-
NORTHEAST WISCONSIN

CITY           SKY/WX    TMP DP  RH WIND       PRES   REMARKS
ANTIGO         CLOUDY    47  46  97 CALM      29.71S
6HR MIN TEMP:  47; 6HR MAX TEMP:  50; 6HR PCP:  0.15;

SHAWANO        CLOUDY    52  49  88 W7        29.71S
6HR MIN TEMP:  52; 6HR MAX TEMP:  57; 6HR PCP:  0.02;

OCONTO         NOT AVBL
STURGEON BAY   MOCLDY    52  49  89 W9        29.70R
6HR MIN TEMP:  52; 6HR MAX TEMP:  55; 6HR PCP:  0.01;

GREEN BAY      LGT RAIN  51  51 100 W7        29.72R
6HR MIN TEMP:  51; 6HR MAX TEMP:  60; 6HR PCP:  0.03;

MANITOWOC      LGT RAIN  52  48  86 MISG      29.74R
6HR MIN TEMP:  52; 6HR MAX TEMP:  58;

APPLETON       LGT RAIN  50  50 100 W10       29.72S
CLINTONVILLE   NOT AVBL
OSHKOSH        LGT RAIN  51  47  86 W7        29.74S
6HR MIN TEMP:  51; 6HR MAX TEMP:  57; 6HR PCP:  0.04;

$$

WIZ032>034-041-042-053>061-280100-
SOUTHWEST WISCONSIN

CITY           SKY/WX    TMP DP  RH WIND       PRES   REMARKS
LA CROSSE      LGT RAIN  53  48  83 N9        29.80R
6HR MIN TEMP:  53; 6HR MAX TEMP:  68; 6HR PCP:  0.01;

SPARTA         LGT RAIN  49  48  95 W8        29.80R
6HR MIN TEMP:  49; 6HR MAX TEMP:  57; 6HR PCP:  0.07;

VIROQUA        MOCLDY    51  45  80 N9        29.79R
6HR MIN TEMP:  51; 6HR MAX TEMP:  64;

BOSCOBEL       CLOUDY    61  40  45 N5        29.76R
6HR MIN TEMP:  61; 6HR MAX TEMP:  69; 6HR PCP: TRACE;

PRAIRIE DU CHI CLOUDY    63  32  31 NW8       29.75S
6HR MIN TEMP:  63; 6HR MAX TEMP:  69;

PLATTEVILLE    PTCLDY    59  40  47 W3        29.77S
6HR MIN TEMP:  59; 6HR MAX TEMP:  69;

$$

WIZ056-057-062-063-064-067-068-280100-
SOUTH CENTRAL WISCONSIN

CITY           SKY/WX    TMP DP  RH WIND       PRES   REMARKS
REEDSBURG      NOT AVBL
BARABOO/DELLS  LGT RAIN  49  46  90 NW8       29.78R
6HR MIN TEMP:  49; 6HR MAX TEMP:  58; 6HR PCP:  0.02;

LONE ROCK      CLOUDY    56  45  66 N13       29.78R
6HR MIN TEMP:  56; 6HR MAX TEMP:  67;

MINERAL POINT  PTCLDY    59  37  44 CALM      29.76S
MADISON        CLOUDY    52  46  80 N13       29.77R
6HR MIN TEMP:  52; 6HR MAX TEMP:  61; 6HR PCP: TRACE;

MIDDLETON      CLOUDY    54  48  78 N7        29.78R
WATERTOWN      DRIZZLE   51  51  99 NW5       29.77R
6HR MIN TEMP:  51; 6HR MAX TEMP:  58; 6HR PCP:  0.03;

MONROE         CLOUDY    61  36  39 W6        29.75S
JANESVILLE     CLOUDY    61  41  48 W3        29.74R
$$

WIZ051-052-058>065-066-070>072-280100-
SOUTHEAST WISCONSIN

CITY           SKY/WX    TMP DP  RH WIND       PRES   REMARKS
MILWAUKEE      LGT RAIN  55  47  74 NW7       29.77R
6HR MIN TEMP:  55; 6HR MAX TEMP:  63; 6HR PCP:  0.01;

WAUKESHA       LGT RAIN  50  46  87 NW7       29.78R
MILWAUKEE/TIMM RAIN      54  46  76 W6        29.77R
RACINE         LGT RAIN  55  48  77 N5        29.78R
6HR MIN TEMP:  55; 6HR MAX TEMP:  64; 6HR PCP: TRACE;

BURLINGTON     CLOUDY    53  45  74 N5        29.77R
6HR MIN TEMP:  53; 6HR MAX TEMP:  65;

KENOSHA        CLOUDY    57  47  69 N7        29.76R
6HR MIN TEMP:  57; 6HR MAX TEMP:  67;

FOND DU LAC    LGT RAIN  51  47  86 W8        29.76R
6HR MIN TEMP:  51; 6HR MAX TEMP:  57; 6HR PCP:  0.03;

SHEBOYGAN      LGT RAIN  52  46  80 W7        29.75R
6HR MIN TEMP:  52; 6HR MAX TEMP:  58; 6HR PCP:  0.01;

WEST BEND      LGT RAIN  50  45  81 W8        29.76S
JUNEAU         RAIN      49  46  90 NW6       29.77S
6HR MIN TEMP:  49; 6HR MAX TEMP:  57; 6HR PCP:  0.03;

$$

LSZ147-162-280100-
LAKE SUPERIOR

STATION/POSITION TIME  TEMP    WIND        PRES    WAVE
                       AIR SEA DIR/SP/G            HT/PER
                 (UTC) (F)     (DEG/KT/KT) (MB)    (FT/S)
W MID LAKE BUOY  2350   54 51  320/ 14/ 16 1005.5R   3/ 4
DEVILS ISLAND    0000   52     330/ 14/ 16 1007.6R
SAXON HARBOR     2300   54     280/  7/ 15 1006.8R
$$

LMZ867-665-643>646-280100-
LAKE MICHIGAN

STATION/POSITION TIME  TEMP    WIND        PRES    WAVE
                       AIR SEA DIR/SP/G            HT/PER
                 (UTC) (F)     (DEG/KT/KT) (MB)    (FT/S)
CHAMBERS ISLAND  2300   53     250/  5/ 12 1004.4R
N MID LAKE BUOY  2350   56 66  250/ 16/ 19 1003.7R   4/ 6
NORTHPORT PIER   2300   53     260/  4/  7 1004.4R
SISTER BAY       2208   55     300/ 18/ 20   N/A
ALGOMA LAKESHORE 2202          270/  8/C1F1C2F2C3F3C4F4C5F5C6F6C7F7C8M1C9M2Ca!


USA.gov is the U.S. government's official web portal to all federal, state and local government web resources and services.